Time,TemperatureF,DewpointF,PressureIn,WindDirection,WindDirectionDegrees,WindSpeedMPH,WindSpeedGustMPH,Humidity,HourlyPrecipIn,Conditions,Clouds,dailyrainin,SoftwareType,DateUTC
2013-10-03 00:00:00,45.0,-99.9,-100.00,WNW,288,4.0,5.0,-999,-99.99,,,-99.99,,2013-10-03 06:00:00,
2013-10-03 00:42:00,45.0,-99.9,-100.00,WNW,288,4.0,5.0,-999,-99.99,,,-99.99,,2013-10-03 06:42:00,
2013-10-03 00:52:00,45.0,-99.9,-100.00,WNW,288,4.0,5.0,-999,-99.99,,,-99.99,,2013-10-03 06:52:00,
2013-10-03 01:00:00,45.0,-99.9,-100.00,WSW,247,4.0,5.0,-999,-99.99,,,-99.99,,2013-10-03 07:00:00,
2013-10-03 01:42:00,45.0,-99.9,-100.00,WSW,247,4.0,5.0,-999,-99.99,,,-99.99,,2013-10-03 07:42:00,
2013-10-03 01:52:00,45.0,-99.9,-100.00,WSW,247,4.0,5.0,-999,-99.99,,,-99.99,,2013-10-03 07:52:00,
2013-10-03 02:00:00,44.0,-99.9,-100.00,North,351,1.0,1.0,-999,-99.99,,,-99.99,,2013-10-03 08:00:00,
2013-10-03 02:23:00,44.0,-99.9,-100.00,North,351,1.0,1.0,-999,-99.99,,,-99.99,,2013-10-03 08:23:00,
2013-10-03 02:32:00,44.0,-99.9,-100.00,North,351,1.0,1.0,-999,-99.99,,,-99.99,,2013-10-03 08:32:00,
2013-10-03 02:42:00,44.0,-99.9,-100.00,North,351,1.0,1.0,-999,-99.99,,,-99.99,,2013-10-03 08:42:00,
2013-10-03 02:52:00,44.0,-99.9,-100.00,North,351,1.0,1.0,-999,-99.99,,,-99.99,,2013-10-03 08:52:00,
2013-10-03 03:00:00,44.0,-99.9,-100.00,NNE,24,5.0,5.0,-999,-99.99,,,-99.99,,2013-10-03 09:00:00,
2013-10-03 03:43:00,44.0,-99.9,-100.00,NNE,24,5.0,5.0,-999,-99.99,,,-99.99,,2013-10-03 09:43:00,
2013-10-03 03:53:00,44.0,-99.9,-100.00,NNE,24,5.0,5.0,-999,-99.99,,,-99.99,,2013-10-03 09:53:00,
2013-10-03 04:00:00,43.0,-99.9,-100.00,WSW,250,7.0,8.0,-999,-99.99,,,-99.99,,2013-10-03 10:00:00,
2013-10-03 04:23:00,43.0,-99.9,-100.00,WSW,250,7.0,8.0,-999,-99.99,,,-99.99,,2013-10-03 10:23:00,
2013-10-03 04:33:00,43.0,-99.9,-100.00,WSW,250,7.0,8.0,-999,-99.99,,,-99.99,,2013-10-03 10:33:00,
2013-10-03 04:43:00,43.0,-99.9,-100.00,WSW,250,7.0,8.0,-999,-99.99,,,-99.99,,2013-10-03 10:43:00,
2013-10-03 04:52:00,43.0,-99.9,-100.00,WSW,250,7.0,8.0,-999,-99.99,,,-99.99,,2013-10-03 10:52:00,
2013-10-03 05:00:00,41.0,-99.9,-100.00,West,278,4.0,4.0,-999,-99.99,,,-99.99,,2013-10-03 11:00:00,
2013-10-03 05:42:00,41.0,-99.9,-100.00,West,278,4.0,4.0,-999,-99.99,,,-99.99,,2013-10-03 11:42:00,
2013-10-03 05:52:00,41.0,-99.9,-100.00,West,278,4.0,4.0,-999,-99.99,,,-99.99,,2013-10-03 11:52:00,
2013-10-03 06:00:00,40.0,-99.9,-100.00,NE,51,2.0,3.0,-999,-99.99,,,-99.99,,2013-10-03 12:00:00,
2013-10-03 06:42:00,40.0,-99.9,-100.00,NE,51,2.0,3.0,-999,-99.99,,,-99.99,,2013-10-03 12:42:00,
2013-10-03 06:52:00,40.0,-99.9,-100.00,NE,51,2.0,3.0,-999,-99.99,,,-99.99,,2013-10-03 12:52:00,
2013-10-03 07:00:00,41.0,-99.9,-100.00,NE,45,5.0,7.0,-999,-99.99,,,-99.99,,2013-10-03 13:00:00,
2013-10-03 07:42:00,41.0,-99.9,-100.00,NE,45,5.0,7.0,-999,-99.99,,,-99.99,,2013-10-03 13:42:00,
2013-10-03 07:52:00,41.0,-99.9,-100.00,NE,45,5.0,7.0,-999,-99.99,,,-99.99,,2013-10-03 13:52:00,
2013-10-03 08:00:00,38.0,-99.9,-100.00,NE,46,13.0,15.0,-999,-99.99,,,-99.99,,2013-10-03 14:00:00,
2013-10-03 08:42:00,38.0,-99.9,-100.00,NE,46,13.0,15.0,-999,-99.99,,,-99.99,,2013-10-03 14:42:00,
2013-10-03 08:52:00,38.0,-99.9,-100.00,NE,46,13.0,15.0,-999,-99.99,,,-99.99,,2013-10-03 14:52:00,
2013-10-03 09:00:00,39.0,-99.9,-100.00,NNE,26,10.0,13.0,-999,-99.99,,,-99.99,,2013-10-03 15:00:00,
2013-10-03 09:44:00,39.0,-99.9,-100.00,NNE,26,10.0,13.0,-999,-99.99,,,-99.99,,2013-10-03 15:44:00,
2013-10-03 09:54:00,39.0,-99.9,-100.00,NNE,26,10.0,13.0,-999,-99.99,,,-99.99,,2013-10-03 15:54:00,
2013-10-03 10:00:00,39.0,-99.9,-100.00,NNE,29,21.0,30.0,-999,-99.99,,,-99.99,,2013-10-03 16:00:00,
2013-10-03 10:43:00,39.0,-99.9,-100.00,NNE,29,21.0,30.0,-999,-99.99,,,-99.99,,2013-10-03 16:43:00,
2013-10-03 10:53:00,39.0,-99.9,-100.00,NNE,29,21.0,30.0,-999,-99.99,,,-99.99,,2013-10-03 16:53:00,
2013-10-03 11:00:00,38.0,-99.9,-100.00,NE,36,22.0,28.0,-999,-99.99,,,-99.99,,2013-10-03 17:00:00,
2013-10-03 11:42:00,38.0,-99.9,-100.00,NE,36,22.0,28.0,-999,-99.99,,,-99.99,,2013-10-03 17:42:00,
2013-10-03 11:52:00,38.0,-99.9,-100.00,NE,36,22.0,28.0,-999,-99.99,,,-99.99,,2013-10-03 17:52:00,
2013-10-03 12:00:00,37.0,-99.9,-100.00,NNE,25,20.0,32.0,-999,-99.99,,,-99.99,,2013-10-03 18:00:00,
2013-10-03 12:42:00,37.0,-99.9,-100.00,NNE,25,20.0,32.0,-999,-99.99,,,-99.99,,2013-10-03 18:42:00,
2013-10-03 12:52:00,37.0,-99.9,-100.00,NNE,25,20.0,32.0,-999,-99.99,,,-99.99,,2013-10-03 18:52:00,
2013-10-03 13:00:00,36.0,-99.9,-100.00,NNE,18,15.0,19.0,-999,-99.99,,,-99.99,,2013-10-03 19:00:00,
2013-10-03 13:22:00,36.0,-99.9,-100.00,NNE,18,15.0,19.0,-999,-99.99,,,-99.99,,2013-10-03 19:22:00,
2013-10-03 13:32:00,36.0,-99.9,-100.00,NNE,18,15.0,19.0,-999,-99.99,,,-99.99,,2013-10-03 19:32:00,
2013-10-03 13:42:00,36.0,-99.9,-100.00,NNE,18,15.0,19.0,-999,-99.99,,,-99.99,,2013-10-03 19:42:00,
2013-10-03 13:53:00,36.0,-99.9,-100.00,NNE,18,15.0,19.0,-999,-99.99,,,-99.99,,2013-10-03 19:53:00,
2013-10-03 14:00:00,37.0,-99.9,-100.00,North,360,14.0,19.0,-999,-99.99,,,-99.99,,2013-10-03 20:00:00,
2013-10-03 14:42:00,37.0,-99.9,-100.00,North,360,14.0,19.0,-999,-99.99,,,-99.99,,2013-10-03 20:42:00,
2013-10-03 14:52:00,37.0,-99.9,-100.00,North,360,14.0,19.0,-999,-99.99,,,-99.99,,2013-10-03 20:52:00,
2013-10-03 15:00:00,36.0,-99.9,-100.00,NNE,20,20.0,25.0,-999,-99.99,,,-99.99,,2013-10-03 21:00:00,
2013-10-03 15:43:00,36.0,-99.9,-100.00,NNE,20,20.0,25.0,-999,-99.99,,,-99.99,,2013-10-03 21:43:00,
2013-10-03 15:54:00,36.0,-99.9,-100.00,NNE,20,20.0,25.0,-999,-99.99,,,-99.99,,2013-10-03 21:54:00,
2013-10-03 16:00:00,35.0,-99.9,-100.00,NNE,24,13.0,17.0,-999,-99.99,,,-99.99,,2013-10-03 22:00:00,
2013-10-03 16:43:00,35.0,-99.9,-100.00,NNE,24,13.0,17.0,-999,-99.99,,,-99.99,,2013-10-03 22:43:00,
2013-10-03 16:55:00,35.0,-99.9,-100.00,NNE,24,13.0,17.0,-999,-99.99,,,-99.99,,2013-10-03 22:55:00,
2013-10-03 17:00:00,32.0,-99.9,-100.00,NNE,18,20.0,25.0,-999,-99.99,,,-99.99,,2013-10-03 23:00:00,
2013-10-03 17:43:00,32.0,-99.9,-100.00,NNE,18,20.0,25.0,-999,-99.99,,,-99.99,,2013-10-03 23:43:00,
2013-10-03 17:53:00,32.0,-99.9,-100.00,NNE,18,20.0,25.0,-999,-99.99,,,-99.99,,2013-10-03 23:53:00,
2013-10-03 18:00:00,32.0,-99.9,-100.00,North,6,18.0,24.0,-999,-99.99,,,-99.99,,2013-10-04 00:00:00,
2013-10-03 18:42:00,32.0,-99.9,-100.00,North,6,18.0,24.0,-999,-99.99,,,-99.99,,2013-10-04 00:42:00,
2013-10-03 18:52:00,32.0,-99.9,-100.00,North,6,18.0,24.0,-999,-99.99,,,-99.99,,2013-10-04 00:52:00,
2013-10-03 19:00:00,32.0,-99.9,-100.00,NNE,20,17.0,20.0,-999,-99.99,,,-99.99,,2013-10-04 01:00:00,
2013-10-03 19:42:00,32.0,-99.9,-100.00,NNE,20,17.0,20.0,-999,-99.99,,,-99.99,,2013-10-04 01:42:00,
2013-10-03 19:52:00,32.0,-99.9,-100.00,NNE,20,17.0,20.0,-999,-99.99,,,-99.99,,2013-10-04 01:52:00,
2013-10-03 20:00:00,31.0,-99.9,-100.00,North,7,20.0,26.0,-999,-99.99,,,-99.99,,2013-10-04 02:00:00,
2013-10-03 20:43:00,31.0,-99.9,-100.00,North,7,20.0,26.0,-999,-99.99,,,-99.99,,2013-10-04 02:43:00,
2013-10-03 20:52:00,31.0,-99.9,-100.00,North,7,20.0,26.0,-999,-99.99,,,-99.99,,2013-10-04 02:52:00,
2013-10-03 21:44:00,32.0,-99.9,-100.00,NNE,12,21.0,28.0,-999,-99.99,,,-99.99,,2013-10-04 03:44:00,
2013-10-03 22:00:00,32.0,-99.9,-100.00,North,8,17.0,22.0,-999,-99.99,,,-99.99,,2013-10-04 04:00:00,
2013-10-03 22:52:00,32.0,-99.9,-100.00,North,8,17.0,22.0,-999,-99.99,,,-99.99,,2013-10-04 04:52:00,
2013-10-03 23:00:00,32.0,-99.9,-100.00,NNE,16,22.0,30.0,-999,-99.99,,,-99.99,,2013-10-04 05:00:00,
2013-10-03 23:51:00,32.0,-99.9,-100.00,NNE,16,22.0,30.0,-999,-99.99,,,-99.99,,2013-10-04 05:51:00,